sat.trackr.live / text

‹ back to catalog

STARLINK-2084

NORAD 47368 · 2021-005V

PAYLOAD ACTIVE UNKNOWN

§ Identity

Operator
Country
US
Launch date
2021-01-20
Launch site
AFETR
Launch vehicle
Mass (kg)
RCS (m²)

Purposes: comms

External: N2YO · Heavens-Above · Gunter

§ Orbital elements

Epoch: 2026-05-25T01:55:15.457728Z

Period
94.01 min
Inclination
53.1596°
Eccentricity
0.0001288
Mean motion
15.31708769 rev/d
Perigee alt
469.8 km
Apogee alt
471.6 km
Semi-major
6,848.9 km
B*
1.4342e-4
RAAN
67.2141°
Arg perigee
74.8192°
Mean anomaly
285.2952°
Rev number
29,473

§ Raw data

STARLINK-20841 47368U 21005V   26145.08004002  .00004089  00000+0  14342-3 0  99952 47368  53.1596  67.2141 0001288  74.8192 285.2952 15.31708769294735

JSON: /api/v1/satellites/47368 · /tle

For live sub-satellite position, see the globe view (requires WebGL).

§ Visibility from observer

Set your observer location to see the next 7 days of passes ≥ 10°. The values pass through the URL so the page stays shareable.

No JS? Fill the form by hand. The geolocation button needs JavaScript.